When you browse on this site, cookies collect data to enhance your experience and personalize the content and advertising you see.
Visit our Privacy Policy to learn more. By continuing to use the site, you agree to this use of cookies and data.
  • In Österreich
  • Länderverzeichnis
  • Für 7 Tage
  • Wassertemperatur
  • Satellitenkarten
  • Wetterkarte
  • News
  • Widgets
  • user-avatar
    Anmelden

    Stündliche Wetter Nuwejba

    Heute, 18 November, Sonntag

    Zeit Temperatur Niederschläge Wind Luftdruck Luftfeuchtigkeit
    00:00 +16°C° 0 mm 2 m/S 695 mmHg 47%
    01:00 +16°C° 0 mm 2 m/S 694 mmHg 48%
    02:00 +15°C° 0 mm 2 m/S 694 mmHg 48%
    03:00 +15°C° 0 mm 2 m/S 694 mmHg 49%
    04:00 +15°C° 0 mm 2 m/S 694 mmHg 49%
    05:00 +14°C° 0 mm 2 m/S 694 mmHg 50%
    06:00 +16°C° 0 mm 2 m/S 694 mmHg 46%
    07:00 +17°C° 0 mm 2 m/S 694 mmHg 42%
    08:00 +18°C° 0 mm 2 m/S 694 mmHg 39%
    09:00 +20°C° 0 mm 2 m/S 694 mmHg 35%
    10:00 +21°C° 0 mm 2 m/S 694 mmHg 31%
    11:00 +23°C° 0 mm 2 m/S 694 mmHg 28%
    12:00 +24°C° 0 mm 2 m/S 694 mmHg 27%
    13:00 +24°C° 0 mm 2 m/S 694 mmHg 25%
    14:00 +25°C° 0 mm 2 m/S 693 mmHg 26%
    15:00 +24°C° 0 mm 2 m/S 693 mmHg 28%
    16:00 +23°C° 0 mm 1 m/S 693 mmHg 30%
    17:00 +22°C° 0 mm 1 m/S 693 mmHg 32%
    18:00 +21°C° 0 mm 1 m/S 692 mmHg 34%
    19:00 +21°C° 0 mm 1 m/S 692 mmHg 35%
    20:00 +20°C° 0 mm 1 m/S 692 mmHg 37%
    21:00 +19°C° 0 mm 1 m/S 692 mmHg 38%
    22:00 +19°C° 0 mm 1 m/S 692 mmHg 39%
    23:00 +19°C° 0 mm 1 m/S 692 mmHg 40%

    Morgen, 19 November, Montag

    Zeit Temperatur Niederschläge Wind Luftdruck Luftfeuchtigkeit
    00:00 +18°C° 0 mm 1 m/S 692 mmHg 41%
    01:00 +18°C° 0 mm 1 m/S 692 mmHg 42%
    02:00 +18°C° 0 mm 1 m/S 691 mmHg 42%
    03:00 +16°C° 0 mm 1 m/S 691 mmHg 43%
    04:00 +16°C° 0 mm 1 m/S 691 mmHg 43%
    05:00 +16°C° 0 mm 1 m/S 691 mmHg 44%
    06:00 +18°C° 0 mm 1 m/S 692 mmHg 40%
    07:00 +19°C° 0 mm 1 m/S 692 mmHg 37%
    08:00 +20°C° 0 mm 1 m/S 693 mmHg 33%
    09:00 +20°C° 0 mm 2 m/S 693 mmHg 31%
    10:00 +21°C° 0 mm 2 m/S 694 mmHg 28%
    11:00 +23°C° 0 mm 2 m/S 694 mmHg 26%
    12:00 +24°C° 0 mm 2 m/S 694 mmHg 24%
    13:00 +24°C° 0 mm 3 m/S 694 mmHg 23%
    14:00 +24°C° 0 mm 3 m/S 694 mmHg 22%
    15:00 +22°C° 0 mm 3 m/S 694 mmHg 25%
    16:00 +21°C° 0 mm 3 m/S 694 mmHg 28%
    17:00 +20°C° 0 mm 3 m/S 694 mmHg 30%
    18:00 +20°C° 0 mm 2 m/S 694 mmHg 35%
    19:00 +19°C° 0 mm 2 m/S 694 mmHg 39%
    20:00 +18°C° 0 mm 2 m/S 694 mmHg 43%
    21:00 +18°C° 0 mm 2 m/S 694 mmHg 47%
    22:00 +17°C° 0 mm 2 m/S 694 mmHg 50%
    23:00 +17°C° 0 mm 2 m/S 694 mmHg 53%

    übermorgen, 20 November, Dienstag

    Zeit Temperatur Niederschläge Wind Luftdruck Luftfeuchtigkeit
    00:00 +16°C° 0 mm 2 m/S 694 mmHg 55%
    01:00 +16°C° 0 mm 2 m/S 694 mmHg 56%
    02:00 +15°C° 0 mm 2 m/S 694 mmHg 57%
    03:00 +15°C° 0 mm 2 m/S 694 mmHg 57%
    04:00 +15°C° 0 mm 2 m/S 694 mmHg 57%
    05:00 +15°C° 0 mm 2 m/S 694 mmHg 57%
    06:00 +16°C° 0 mm 2 m/S 695 mmHg 52%
    07:00 +17°C° 0 mm 2 m/S 695 mmHg 47%
    08:00 +18°C° 0 mm 2 m/S 696 mmHg 42%
    09:00 +19°C° 0 mm 2 m/S 696 mmHg 38%
    10:00 +20°C° 0 mm 2 m/S 696 mmHg 33%
    11:00 +23°C° 0 mm 2 m/S 696 mmHg 29%
    12:00 +23°C° 0 mm 2 m/S 696 mmHg 28%
    13:00 +24°C° 0 mm 2 m/S 696 mmHg 26%
    14:00 +24°C° 0 mm 2 m/S 695 mmHg 25%
    15:00 +23°C° 0 mm 2 m/S 695 mmHg 28%
    16:00 +21°C° 0 mm 2 m/S 695 mmHg 30%
    17:00 +20°C° 0 mm 2 m/S 694 mmHg 33%
    18:00 +20°C° 0 mm 2 m/S 695 mmHg 35%
    19:00 +19°C° 0 mm 2 m/S 695 mmHg 36%
    20:00 +19°C° 0 mm 2 m/S 695 mmHg 38%
    21:00 +18°C° 0 mm 2 m/S 695 mmHg 39%
    22:00 +19°C° 0 mm 1 m/S 695 mmHg 41%
    23:00 +18°C° 0 mm 1 m/S 695 mmHg 42%

    21 November, Mittwoch

    Zeit Temperatur Niederschläge Wind Luftdruck Luftfeuchtigkeit
    00:00 +18°C° 0 mm 1 m/S 694 mmHg 43%
    01:00 +16°C° 0 mm 1 m/S 694 mmHg 44%
    02:00 +16°C° 0 mm 1 m/S 694 mmHg 45%
    03:00 +16°C° 0 mm 1 m/S 693 mmHg 45%
    04:00 +16°C° 0 mm 1 m/S 693 mmHg 46%
    05:00 +15°C° 0 mm 1 m/S 693 mmHg 46%
    06:00 +18°C° 0 mm 1 m/S 693 mmHg 43%
    07:00 +19°C° 0 mm 1 m/S 694 mmHg 39%
    08:00 +20°C° 0 mm 1 m/S 694 mmHg 35%
    09:00 +22°C° 0 mm 1 m/S 694 mmHg 33%
    10:00 +23°C° 0 mm 1 m/S 694 mmHg 30%
    11:00 +24°C° 0 mm 1 m/S 694 mmHg 27%
    12:00 +24°C° 0 mm 1 m/S 694 mmHg 26%
    13:00 +25°C° 0 mm 2 m/S 694 mmHg 25%
    14:00 +25°C° 0 mm 2 m/S 693 mmHg 23%
    15:00 +24°C° 0 mm 2 m/S 693 mmHg 25%
    16:00 +23°C° 0 mm 2 m/S 693 mmHg 28%
    17:00 +21°C° 0 mm 2 m/S 693 mmHg 30%
    18:00 +21°C° 0 mm 2 m/S 693 mmHg 33%
    19:00 +20°C° 0 mm 2 m/S 693 mmHg 36%
    20:00 +19°C° 0 mm 2 m/S 693 mmHg 39%
    21:00 +20°C° 0 mm 1 m/S 693 mmHg 40%
    22:00 +20°C° 0 mm 1 m/S 693 mmHg 42%
    23:00 +19°C° 0 mm 1 m/S 693 mmHg 43%

    22 November, Donnerstag

    Zeit Temperatur Niederschläge Wind Luftdruck Luftfeuchtigkeit
    00:00 +19°C° 0 mm 1 m/S 692 mmHg 42%
    01:00 +19°C° 0 mm 1 m/S 692 mmHg 41%
    02:00 +19°C° 0 mm 1 m/S 692 mmHg 41%
    03:00 +19°C° 0 mm 1 m/S 692 mmHg 39%
    04:00 +19°C° 0 mm 1 m/S 692 mmHg 38%
    05:00 +19°C° 0 mm 1 m/S 692 mmHg 37%
    06:00 +20°C° 0 mm 1 m/S 692 mmHg 35%
    07:00 +20°C° 0 mm 1 m/S 693 mmHg 33%
    08:00 +21°C° 0 mm 1 m/S 693 mmHg 32%
    09:00 +22°C° 0 mm 1 m/S 693 mmHg 29%
    10:00 +23°C° 0 mm 2 m/S 693 mmHg 26%
    11:00 +24°C° 0 mm 2 m/S 693 mmHg 23%
    12:00 +24°C° 0 mm 2 m/S 692 mmHg 23%
    13:00 +25°C° 0 mm 3 m/S 692 mmHg 22%
    14:00 +25°C° 0 mm 3 m/S 691 mmHg 22%
    15:00 +24°C° 0 mm 3 m/S 691 mmHg 24%
    16:00 +22°C° 0 mm 3 m/S 691 mmHg 26%
    17:00 +21°C° 0 mm 2 m/S 691 mmHg 28%
    18:00 +20°C° 0 mm 2 m/S 691 mmHg 30%
    19:00 +20°C° 0 mm 2 m/S 691 mmHg 32%
    20:00 +19°C° 0 mm 2 m/S 692 mmHg 34%
    21:00 +18°C° 0 mm 2 m/S 691 mmHg 36%
    22:00 +18°C° 0 mm 2 m/S 691 mmHg 38%
    23:00 +17°C° 0 mm 2 m/S 691 mmHg 40%

    23 November, Freitag

    Zeit Temperatur Niederschläge Wind Luftdruck Luftfeuchtigkeit
    00:00 +17°C° 0 mm 2 m/S 691 mmHg 42%
    01:00 +16°C° 0 mm 2 m/S 691 mmHg 43%
    02:00 +16°C° 0 mm 2 m/S 690 mmHg 45%
    03:00 +15°C° 0 mm 2 m/S 690 mmHg 49%
    04:00 +15°C° 0 mm 2 m/S 690 mmHg 53%
    05:00 +14°C° 0 mm 2 m/S 690 mmHg 57%
    06:00 +14°C° 0 mm 3 m/S 691 mmHg 59%
    07:00 +14°C° 0 mm 3 m/S 691 mmHg 62%
    08:00 +16°C° 0 mm 3 m/S 692 mmHg 64%
    09:00 +17°C° 0 mm 3 m/S 692 mmHg 59%
    10:00 +18°C° 0 mm 3 m/S 692 mmHg 53%
    11:00 +19°C° 0 mm 3 m/S 692 mmHg 47%
    12:00 +19°C° 0 mm 4 m/S 691 mmHg 46%
    13:00 +19°C° 0 mm 4 m/S 691 mmHg 44%
    14:00 +20°C° 0 mm 5 m/S 691 mmHg 43%
    15:00 +19°C° 0 mm 5 m/S 691 mmHg 47%
    16:00 +17°C° 0 mm 5 m/S 691 mmHg 52%
    17:00 +17°C° 0 mm 4 m/S 691 mmHg 56%
    18:00 +17°C° 0 mm 4 m/S 691 mmHg 59%
    19:00 +16°C° 0 mm 3 m/S 691 mmHg 62%
    20:00 +16°C° 0 mm 3 m/S 691 mmHg 64%
    21:00 +14°C° 0 mm 3 m/S 691 mmHg 65%
    22:00 +14°C° 0 mm 3 m/S 691 mmHg 66%
    23:00 +15°C° 0 mm 2 m/S 691 mmHg 67%
    Mehr zeigen